Sanford, ME

7:08 AM EDT on June 28, 2017 (GMT -0400)
Sanford Regional

Weather History for KSFM - December, 2012

Change the Weather History Date:

Monday, December 17, 2012

  Actual Average Record
Temperature  
Mean Temperature 26 °F -  
Max Temperature 32 °F 35 °F 57 °F (2000)
Min Temperature 21 °F 18 °F -16 °F (2013)
Degree Days  
Heating Degree Days 38    
Moisture  
Dew Point 23 °F    
Average Humidity 85    
Maximum Humidity 100    
Minimum Humidity 50    
Precipitation  
Precipitation 0.03 in - - ()
Sea Level Pressure  
Sea Level Pressure 30.03 in    
Wind  
Wind Speed 11 mph (NNE)    
Max Wind Speed 15 mph    
Max Gust Speed 20 mph    
Visibility 3 miles    
Events      
Averages and records for this station are not official NWS values.
T = Trace of Precipitation, MM = Missing Value Source: NWS Daily Summary

Daily Weather History Graph

Daily Weather History Graph

Search for Another Location

Airport or City:

Trip Planner

Search our weather history database for the weather conditions in past years. The results will help you decide how hot, cold, wet, or windy it might be!

Date:

Astronomy

Dec. 17, 2012 Rise Set
Actual Time 7:10 AM EST 4:08 PM EST
Civil Twilight 6:37 AM EST 4:40 PM EST
Nautical Twilight 6:01 AM EST 5:17 PM EST
Astronomical Twilight 5:26 AM EST 5:51 PM EST
Moon 10:09 AM EST (12/17) 9:34 PM EST (12/17)
Length of Visible Light 10h 03m
Length of Day
8h 58m
Waxing Crescent, 24% of the Moon is Illuminated
Dec 17
Waxing Crescent
Dec 20
First Quarter
Dec 28
Full
Jan 4
Last Quarter
Jan 11
New

Hourly Weather History & Observations

Time (EST) Temp. Windchill Dew Point Humidity Pressure Visibility Wind Dir Wind Speed Gust Speed Precip Events Conditions
12:15 AM 21.2 °F 10.1 °F 8.6 °F 58% 30.16 in 5.0 mi NNE 10.4 mph - N/A   Overcast
12:35 AM 21.2 °F 10.9 °F 21.2 °F 100% 30.15 in 5.0 mi North 9.2 mph - N/A   Overcast
1:15 AM 21.2 °F 10.9 °F 19.4 °F 93% 30.15 in 8.0 mi North 9.2 mph - N/A   Overcast
1:35 AM 21.2 °F 10.1 °F 17.6 °F 86% 30.14 in 5.0 mi North 10.4 mph - N/A   Overcast
1:55 AM 21.2 °F 10.1 °F - N/A% 30.15 in 10.0 mi NNE 10.4 mph - N/A   Overcast
2:15 AM 23.0 °F 11.7 °F 10.4 °F 59% 30.13 in 10.0 mi NNE 11.5 mph - N/A   Overcast
2:35 AM 23.0 °F 11.1 °F 23.0 °F 100% 30.13 in 5.0 mi NNE 12.7 mph - N/A   Overcast
2:55 AM 23.0 °F 11.7 °F 17.6 °F 80% 30.12 in 5.0 mi North 11.5 mph - N/A   Overcast
3:15 AM 23.0 °F 13.1 °F 21.2 °F 93% 30.12 in 6.0 mi North 9.2 mph - N/A   Overcast
3:35 AM 23.0 °F 13.9 °F 19.4 °F 86% 30.11 in 5.0 mi North 8.1 mph - N/A   Overcast
3:55 AM 23.0 °F 13.1 °F 21.2 °F 93% 30.10 in 4.0 mi North 9.2 mph - N/A   Overcast
4:15 AM 23.0 °F 13.1 °F 17.6 °F 80% 30.10 in 3.0 mi North 9.2 mph - N/A   Overcast
4:35 AM 24.8 °F 14.0 °F 24.8 °F 100% 30.08 in 3.0 mi NNE 11.5 mph - N/A   Overcast
4:55 AM 24.8 °F 13.4 °F 17.6 °F 74% 30.08 in 2.5 mi NNE 12.7 mph - N/A   Overcast
5:15 AM 24.8 °F 13.4 °F 21.2 °F 86% 30.07 in 2.5 mi NNE 12.7 mph - N/A   Overcast
5:35 AM 24.8 °F 14.0 °F 23.0 °F 93% 30.07 in 2.5 mi NNE 11.5 mph - N/A   Overcast
5:55 AM 24.8 °F 14.0 °F 15.8 °F 69% 30.07 in 2.5 mi NNE 11.5 mph - N/A   Overcast
6:15 AM 24.8 °F 13.4 °F 24.8 °F 100% 30.07 in 2.5 mi NNE 12.7 mph - N/A   Overcast
6:35 AM 24.8 °F 14.0 °F 8.6 °F 50% 30.07 in 3.0 mi NNE 11.5 mph - N/A   Overcast
6:55 AM 24.8 °F 13.4 °F - N/A% 30.07 in 2.5 mi NNE 12.7 mph - N/A   Overcast
7:15 AM 24.8 °F 12.9 °F 10.4 °F 54% 30.07 in 1.5 mi NNE 13.8 mph - N/A   Overcast
7:35 AM 24.8 °F 14.0 °F 24.8 °F 100% 30.07 in 1.5 mi NNE 11.5 mph - N/A   Overcast
7:55 AM 24.8 °F 13.4 °F 17.6 °F 74% 30.07 in 2.5 mi NNE 12.7 mph - N/A   Overcast
8:15 AM 24.8 °F 13.4 °F 19.4 °F 80% 30.07 in 3.0 mi NNE 12.7 mph - N/A   Overcast
8:35 AM 24.8 °F 12.9 °F 24.8 °F 100% 30.06 in 2.0 mi NNE 13.8 mph - N/A   Overcast
8:55 AM 24.8 °F 13.4 °F 10.4 °F 54% 30.07 in 2.5 mi NNE 12.7 mph 18.4 mph N/A   Overcast
9:15 AM 26.6 °F 14.7 °F - N/A% 30.07 in 1.5 mi NNE 15.0 mph 19.6 mph N/A   Overcast
9:35 AM 26.6 °F 15.7 °F 10.4 °F 51% 30.06 in 1.5 mi NNE 12.7 mph - N/A   Overcast
9:55 AM 26.6 °F 15.2 °F - N/A% 30.06 in 1.8 mi NNE 13.8 mph 18.4 mph N/A   Overcast
10:15 AM 26.6 °F 16.2 °F 10.4 °F 51% 30.06 in 1.8 mi NNE 11.5 mph - N/A   Overcast
10:35 AM 26.6 °F 15.7 °F - N/A% 30.04 in 2.0 mi NNE 12.7 mph - N/A   Overcast
10:55 AM 26.6 °F 16.8 °F 15.8 °F 64% 30.04 in 3.0 mi NNE 10.4 mph - N/A   Overcast
11:15 AM 26.6 °F 16.2 °F 26.6 °F 100% 30.03 in 3.0 mi NNE 11.5 mph - N/A   Overcast
11:35 AM 26.6 °F 15.7 °F 24.8 °F 93% 30.02 in 3.0 mi NNE 12.7 mph - N/A   Overcast
11:55 AM 26.6 °F 16.2 °F 19.4 °F 74% 30.02 in 3.0 mi NNE 11.5 mph 18.4 mph N/A   Overcast
12:15 PM 28.4 °F 19.1 °F 28.4 °F 100% 30.01 in 2.5 mi NNE 10.4 mph - N/A   Overcast
12:35 PM 28.4 °F 18.0 °F 21.2 °F 74% 30.01 in 2.5 mi NNE 12.7 mph 16.1 mph N/A   Overcast
12:55 PM 28.4 °F 17.5 °F 28.4 °F 100% 30.00 in 2.5 mi NNE 13.8 mph - N/A   Overcast
1:15 PM 28.4 °F 18.5 °F 24.8 °F 86% 30.00 in 2.5 mi NNE 11.5 mph 18.4 mph N/A   Overcast
1:35 PM 28.4 °F 18.0 °F 28.4 °F 100% 29.98 in 3.0 mi NNE 12.7 mph - N/A   Overcast
1:55 PM 28.4 °F 19.1 °F 28.4 °F 100% 29.97 in 2.5 mi NNE 10.4 mph 16.1 mph N/A   Overcast
2:15 PM 28.4 °F 18.5 °F 24.8 °F 86% 29.98 in 3.0 mi NNE 11.5 mph - N/A   Overcast
2:35 PM 28.4 °F 19.7 °F 28.4 °F 100% 30.00 in 3.0 mi North 9.2 mph - N/A   Overcast
2:55 PM 28.4 °F 18.5 °F 23.0 °F 80% 29.99 in 2.0 mi North 11.5 mph - N/A   Overcast
3:15 PM 28.4 °F 18.5 °F 26.6 °F 93% 29.98 in 1.5 mi North 11.5 mph - N/A   Overcast
3:35 PM 28.4 °F 19.1 °F 28.4 °F 100% 29.99 in 1.8 mi North 10.4 mph - N/A   Overcast
3:55 PM 28.4 °F 19.1 °F 21.2 °F 74% 29.97 in 2.5 mi North 10.4 mph - N/A   Overcast
4:15 PM 28.4 °F 19.7 °F 28.4 °F 100% 29.97 in 3.0 mi NNE 9.2 mph - N/A   Overcast
4:35 PM 28.4 °F 19.1 °F 28.4 °F 100% 29.96 in 5.0 mi NNE 10.4 mph - N/A   Overcast
4:55 PM 28.4 °F 19.7 °F 21.2 °F 74% 29.96 in 5.0 mi North 9.2 mph - N/A   Overcast
7:35 PM 30.2 °F 21.3 °F 26.6 °F 86% 29.96 in 5.0 mi NNE 10.4 mph - N/A   Overcast
7:55 PM 30.2 °F 21.9 °F 28.4 °F 93% 29.96 in 4.0 mi NNE 9.2 mph - 0.01 in   Overcast
8:15 PM 30.2 °F 21.3 °F 30.2 °F 100% 29.96 in 3.0 mi North 10.4 mph - N/A   Overcast
8:35 PM 30.2 °F 23.4 °F 28.4 °F 93% 29.96 in 3.0 mi North 6.9 mph - N/A   Overcast
8:55 PM 30.2 °F 22.6 °F 28.4 °F 93% 29.96 in 3.0 mi North 8.1 mph - N/A   Overcast
9:15 PM 30.2 °F 21.3 °F 30.2 °F 100% 29.94 in 3.0 mi NNE 10.4 mph - N/A   Overcast
9:35 PM 32.0 °F 24.2 °F 28.4 °F 87% 29.94 in 3.0 mi North 9.2 mph - N/A   Overcast
9:55 PM 32.0 °F 22.5 °F 28.4 °F 87% 29.92 in 4.0 mi NNE 12.7 mph - N/A   Overcast
10:15 PM 32.0 °F 23.6 °F 32.0 °F 100% 29.93 in 3.0 mi NNE 10.4 mph - N/A   Overcast
10:35 PM 32.0 °F 23.0 °F 26.6 °F 80% 29.92 in 3.0 mi NNE 11.5 mph - N/A   Overcast
10:55 PM 32.0 °F 21.6 °F 28.4 °F 87% 29.89 in 4.0 mi North 15.0 mph - 0.01 in   Overcast
11:15 PM 32.0 °F 22.5 °F 32.0 °F 100% 29.89 in 5.0 mi North 12.7 mph - N/A   Overcast
11:35 PM 32.0 °F 23.0 °F 26.6 °F 80% 29.89 in 3.0 mi North 11.5 mph - N/A   Overcast
11:55 PM 32.0 °F 24.8 °F 30.2 °F 93% 29.89 in 3.0 mi North 8.1 mph - 0.01 in   Overcast